Pos First Name Last Name YOB Country Start
Num
Time Run T1 Bike T2 Run
1 Arnaud Dely 1997 BEL 50 01:37:59 00:27:54 00:00:41 00:54:28 00:00:44 00:14:12
2 Krzysztof Hadas 1996 POL 44 01:40:35 00:28:47 00:00:48 00:56:14 00:00:48 00:13:58
3 Wesley Mols 1996 NED 51 01:41:14 00:28:44 00:00:48 00:56:18 00:00:49 00:14:35
4 Thomas Cremers 1998 NED 56 01:41:30 00:29:17 00:00:52 00:55:37 00:00:49 00:14:55
5 Nicolas Tilman 1995 BEL 52 01:41:43 00:29:22 00:00:44 00:55:40 00:00:47 00:15:10
6 Aoba Yasumatsu 1997 JPN 42 01:41:47 00:28:49 00:00:46 00:56:14 00:00:48 00:15:10
7 Stijn Jansen 1997 NED 59 01:42:06 00:30:37 00:00:49 00:54:54 00:00:48 00:14:58
8 Matt Smith 1996 AUS 41 01:42:40 00:29:18 00:00:52 00:56:45 00:00:59 00:14:46
9 Thijs Wiggers 1995 NED 45 01:42:48 00:30:43 00:00:46 00:54:53 00:00:46 00:15:40
10 Niels Te Pas 1996 NED 54 01:43:21 00:29:56 00:00:46 00:56:14 00:00:51 00:15:34
11 Tsukasa Kuyama 1996 JPN 53 01:44:25 00:29:52 00:00:51 00:56:15 00:01:14 00:16:13
12 Shunsuke Nishimura 1998 JPN 58 01:44:43 00:29:18 00:00:51 00:56:48 00:01:07 00:16:39
13 Shohei Hara 1996 JPN 47 01:45:42 00:29:17 00:00:50 00:59:42 00:00:54 00:14:59
14 Hotaka Yamagishi 1997 JPN 60 01:47:11 00:29:11 00:00:57 00:58:10 00:01:12 00:17:41
15 Niall Cornyn 1996 IRL 55 01:47:20 00:30:01 00:00:46 01:00:13 00:00:47 00:15:33
16 Christian Stounberg 1995 DEN 48 01:47:40 00:30:13 00:00:50 00:59:56 00:00:50 00:15:51
17 Stefan Daniel 1997 CAN 43 01:55:38 00:29:15 00:00:49 01:00:10 00:00:59 00:24:25
LAP Freddie Shashaty 1997 USA 46 LAP 00:31:22 00:00:56 00:00:00 00:00:00 00:00:00
LAP Kennedy Onyango 1996 KEN 49 LAP 00:29:35 00:01:01 00:00:00 00:00:00 00:00:00
LAP Matheus Schneider Veiga 1995 BRA 57 LAP 00:31:23 00:00:54 00:00:00 00:00:00 00:00:00
Program notes:

Technical Delegate: Duncan Hough/GBR. Head Referee: Juliet Fahey/NZL - Competition Jury: Duncan Hough/GBR, Barry Siff/USA, Morten Fenger/DEN.
Distances: Run 9.5km (5 laps), Bike 37.8km (6 laps), Run 4.5km (2 laps).
Air temperature: 25.7C; Humidity : 27.5%.
Athletes #43 Daniel/CAN and #60 Yamagishi/JPN served a 15 seconds penalty during the 2nd run segment.